This is the latest recevied weather packets stored in our database for station/object N5ATR. If no packets are shown the sender has not sent any weather packets the latest 10 day(s).
| Time | Temp. | Humidity | Pressure | Rain* | Wind** | Luminosity | Snow |
|---|---|---|---|---|---|---|---|
| 1788034093 | 31.11° C | 27% | 1024.4 hPa | 0 mm | - | 678 W/m² | - |
| 1788033792 | 30.56° C | 29% | 1024.1 hPa | 0 mm | - | 683 W/m² | - |
| 1788033492 | 30.56° C | 28% | 1024.5 hPa | 0 mm | - | 688 W/m² | - |
| 1788033187 | 31.11° C | 28% | 1024.4 hPa | 0 mm | - | 692 W/m² | - |
| 1788032882 | 30° C | 28% | 1024.5 hPa | 0 mm | - | 694 W/m² | - |
| 1788032581 | 31.67° C | 26% | 1024.4 hPa | 0 mm | - | 697 W/m² | - |
| 1788032277 | 30.56° C | 28% | 1024.6 hPa | 0 mm | - | 703 W/m² | - |
| 1788031973 | 31.11° C | 27% | 1024.7 hPa | 0 mm | - | 704 W/m² | - |
| 1788031668 | 30.56° C | 27% | 1024.9 hPa | 0 mm | - | 711 W/m² | - |
| 1788031367 | 31.11° C | 28% | 1024.7 hPa | 0 mm | - | 719 W/m² | - |
| 1788031062 | 30.56° C | 28% | 1024.9 hPa | 0 mm | - | 723 W/m² | - |
| 1788030757 | 30.56° C | 28% | 1025.2 hPa | 0 mm | - | 717 W/m² | - |
| 1788030456 | 30.56° C | 28% | 1025 hPa | 0 mm | - | 718 W/m² | - |
| 1788030151 | 30.56° C | 29% | 1024.9 hPa | 0 mm | - | 730 W/m² | - |
| 1788029851 | 30.56° C | 29% | 1025.4 hPa | 0 mm | - | 755 W/m² | - |
| 1788029546 | 30.56° C | 30% | 1025.4 hPa | 0 mm | - | 771 W/m² | - |
| 1788029245 | 30.56° C | 29% | 1025.4 hPa | 0 mm | - | 755 W/m² | - |
| 1788028941 | 30.56° C | 29% | 1025.4 hPa | 0 mm | - | 744 W/m² | - |
| 1788028640 | 30° C | 29% | 1025.8 hPa | 0 mm | - | 745 W/m² | - |
| 1788028335 | 30.56° C | 29% | 1025.6 hPa | 0 mm | - | 754 W/m² | - |
| 1788028031 | 30° C | 30% | 1026 hPa | 0 mm | - | 734 W/m² | - |
| 1788027726 | 30° C | 30% | 1026 hPa | 0 mm | - | 719 W/m² | - |
| 1788027425 | 30° C | 29% | 1026 hPa | 0 mm | - | 724 W/m² | - |
| 1788027120 | 30.56° C | 29% | 1026.1 hPa | 0 mm | - | 718 W/m² | - |
| 1788026819 | 30.56° C | 30% | 1025.8 hPa | 0 mm | - | 711 W/m² | - |
* Rain latest hour (hover to see other rain measurements)
** Current wind speed in m/s (hover to see current wind gust speed)